Franklin, NC

2:35 PM EDT on September 26, 2017 (GMT -0400)
Franklin

Weather History for K1A5 - January, 2005

Change the Weather History Date:

Friday, January 14, 2005

  Actual Average (KTOC) Record (KTOC)
Temperature  
Mean Temperature 42 °F -  
Max Temperature 53 °F 52 °F 66 °F (2017)
Min Temperature 30 °F 30 °F 28 °F (2016)
Degree Days  
Heating Degree Days 24    
Moisture  
Dew Point 32 °F    
Average Humidity 64    
Maximum Humidity 93    
Minimum Humidity 19    
Precipitation  
Precipitation 0.00 in - - ()
Sea Level Pressure  
Sea Level Pressure 30.19 in    
Wind  
Wind Speed 5 mph (NW)    
Max Wind Speed 14 mph    
Max Gust Speed 24 mph    
Visibility 10 miles    
Events Rain    
Averages and records for this station are not official NWS values.
T = Trace of Precipitation, MM = Missing Value Source: NWS Daily Summary

Daily Weather History Graph

Daily Weather History Graph

Search for Another Location

Airport or City:

Trip Planner

Search our weather history database for the weather conditions in past years. The results will help you decide how hot, cold, wet, or windy it might be!

Date:

Astronomy

Jan. 14, 2005 Rise Set
Actual Time 7:41 AM EST 5:44 PM EST
Civil Twilight 7:14 AM EST 6:11 PM EST
Nautical Twilight 6:43 AM EST 6:42 PM EST
Astronomical Twilight 6:12 AM EST 7:13 PM EST
Moon 10:50 AM EST (1/14) 10:47 PM EST (1/14)
Length of Visible Light 10h 57m
Length of Day
10h 02m
Waxing Crescent, 23% of the Moon is Illuminated
Jan 14
Waxing Crescent
Jan 17
First Quarter
Jan 25
Full
Feb 2
Last Quarter
Feb 8
New

Hourly Weather History & Observations

Time (EST) Temp. Windchill Dew Point Humidity Pressure Visibility Wind Dir Wind Speed Gust Speed Precip Events Conditions
12:00 AM 53.6 °F - 50.0 °F 88% 29.91 in 10.0 mi Calm Calm - N/A Rain Rain
12:20 AM 53.6 °F - 48.2 °F 82% 29.91 in 10.0 mi Calm Calm - N/A   Overcast
12:40 AM 53.6 °F - 48.2 °F 82% 29.92 in 10.0 mi WNW 4.6 mph - N/A Rain Light Rain
1:00 AM 53.6 °F - 46.4 °F 77% 29.93 in 10.0 mi NNW 5.8 mph - N/A Rain Light Rain
1:20 AM 53.6 °F - 46.4 °F 77% 29.93 in 10.0 mi NW 8.1 mph - N/A Rain Light Rain
1:40 AM 51.8 °F - 46.4 °F 82% 29.94 in 10.0 mi Calm Calm - N/A Rain Light Rain
2:00 AM 51.8 °F - 44.6 °F 76% 29.94 in 10.0 mi NW 5.8 mph - N/A Rain Light Rain
2:20 AM 51.8 °F - 44.6 °F 76% 29.92 in 10.0 mi North 4.6 mph - N/A Rain Light Rain
2:40 AM 51.8 °F - 42.8 °F 71% 29.92 in 10.0 mi NW 5.8 mph - N/A Rain Light Rain
3:00 AM 51.8 °F - 42.8 °F 71% 29.94 in 10.0 mi WNW 10.4 mph 18.4 mph N/A Rain Light Rain
3:20 AM 51.8 °F - 42.8 °F 71% 29.95 in 10.0 mi NW 5.8 mph - N/A   Mostly Cloudy
4:00 AM 51.8 °F - 44.6 °F 76% 29.97 in 10.0 mi NW 5.8 mph - N/A   Overcast
4:20 AM 50.0 °F - 44.6 °F 82% 29.96 in 10.0 mi NW 3.5 mph - N/A   Overcast
4:40 AM 50.0 °F - 42.8 °F 76% 29.98 in 10.0 mi NNE 6.9 mph - N/A   Overcast
5:00 AM 48.2 °F - 41.0 °F 76% 29.99 in 10.0 mi North 5.8 mph 17.3 mph N/A   Overcast
5:20 AM 46.4 °F 40.4 °F 41.0 °F 81% 30.01 in 10.0 mi WNW 13.8 mph 24.2 mph N/A   Overcast
5:40 AM 46.4 °F 42.9 °F 39.2 °F 76% 30.02 in 10.0 mi WNW 6.9 mph - N/A   Overcast
6:00 AM 46.4 °F 45.2 °F 37.4 °F 71% 30.04 in 10.0 mi NNW 3.5 mph 9.2 mph N/A   Scattered Clouds
6:20 AM 44.6 °F 39.2 °F 37.4 °F 76% 30.03 in 10.0 mi North 10.4 mph 16.1 mph N/A   Scattered Clouds
7:00 AM 44.6 °F 40.2 °F 37.4 °F 76% 30.08 in 10.0 mi NW 8.1 mph - N/A   Overcast
7:20 AM 44.6 °F 39.2 °F 37.4 °F 76% 30.11 in 10.0 mi WNW 10.4 mph 17.3 mph N/A   Overcast
7:40 AM 42.8 °F 41.1 °F 35.6 °F 76% 30.11 in 10.0 mi WNW 3.5 mph - N/A   Overcast
8:00 AM 42.8 °F 38.0 °F 35.6 °F 76% 30.13 in 10.0 mi WNW 8.1 mph 19.6 mph N/A   Overcast
8:20 AM 42.8 °F 35.8 °F 33.8 °F 70% 30.16 in 10.0 mi WNW 13.8 mph - N/A   Overcast
9:00 AM 42.8 °F 36.6 °F 33.8 °F 70% 30.18 in 10.0 mi NW 11.5 mph 23.0 mph N/A   Overcast
9:20 AM 42.8 °F 36.2 °F 33.8 °F 70% 30.20 in 10.0 mi WNW 12.7 mph 19.6 mph N/A   Mostly Cloudy
9:40 AM 42.8 °F 36.2 °F 32.0 °F 66% 30.23 in 10.0 mi WNW 12.7 mph 19.6 mph N/A   Scattered Clouds
10:00 AM 42.8 °F 36.6 °F 32.0 °F 66% 30.23 in 10.0 mi WNW 11.5 mph - N/A   Scattered Clouds
10:20 AM 42.8 °F 37.5 °F 32.0 °F 66% 30.25 in 10.0 mi NW 9.2 mph 18.4 mph N/A   Clear
10:40 AM 42.8 °F 38.6 °F 32.0 °F 66% 30.23 in 10.0 mi NW 6.9 mph - N/A   Clear
11:00 AM 44.6 °F 39.2 °F 32.0 °F 61% 30.23 in 10.0 mi West 10.4 mph - N/A   Clear
11:40 AM 48.2 °F - 28.4 °F 46% 30.22 in 10.0 mi North 12.7 mph 18.4 mph N/A   Clear
12:00 PM 48.2 °F - 26.6 °F 43% 30.21 in 10.0 mi NNE 10.4 mph 16.1 mph N/A   Clear
12:20 PM 50.0 °F - 26.6 °F 40% 30.21 in 10.0 mi NNW 10.4 mph 18.4 mph N/A   Clear
12:40 PM 50.0 °F - 26.6 °F 40% 30.21 in 10.0 mi North 10.4 mph 16.1 mph N/A   Clear
1:00 PM 50.0 °F - 24.8 °F 37% 30.21 in 10.0 mi NNW 9.2 mph - N/A   Clear
1:20 PM 50.0 °F - 26.6 °F 40% 30.22 in 10.0 mi North 6.9 mph - N/A   Clear
2:00 PM 51.8 °F - 26.6 °F 38% 30.23 in 10.0 mi West 8.1 mph - N/A   Clear
2:20 PM 50.0 °F - 24.8 °F 37% 30.24 in 10.0 mi WNW 6.9 mph - N/A   Clear
2:40 PM 51.8 °F - 21.2 °F 30% 30.25 in 10.0 mi West 5.8 mph - N/A   Clear
3:00 PM 51.8 °F - 21.2 °F 30% 30.25 in 10.0 mi West 4.6 mph - N/A   Clear
3:20 PM 51.8 °F - 12.2 °F 21% 30.25 in 10.0 mi North 9.2 mph - N/A   Clear
3:40 PM 51.8 °F - 14.0 °F 22% 30.26 in 10.0 mi NNE 10.4 mph - N/A   Clear
4:00 PM 51.8 °F - 12.2 °F 21% 30.27 in 10.0 mi North 6.9 mph - N/A   Clear
4:20 PM 51.8 °F - 10.4 °F 19% 30.28 in 10.0 mi North 9.2 mph 18.4 mph N/A   Clear
5:00 PM 50.0 °F - 14.0 °F 24% 30.30 in 10.0 mi NW 9.2 mph - N/A   Clear
5:20 PM 48.2 °F - 15.8 °F 27% 30.32 in 10.0 mi NW 9.2 mph - N/A   Clear
6:00 PM 44.6 °F 41.4 °F 21.2 °F 39% 30.35 in 10.0 mi NW 5.8 mph - N/A   Clear
6:20 PM 44.6 °F 43.1 °F 23.0 °F 43% 30.36 in 10.0 mi NW 3.5 mph - N/A   Clear
7:00 PM 41.0 °F - 26.6 °F 57% 30.37 in 10.0 mi Calm Calm - N/A   Clear
7:20 PM 37.4 °F - 28.4 °F 70% 30.39 in 10.0 mi Calm Calm - N/A   Clear
7:40 PM 35.6 °F - 28.4 °F 75% 30.39 in 10.0 mi Calm Calm - N/A   Clear
8:00 PM 33.8 °F - 28.4 °F 81% 30.40 in 10.0 mi Calm Calm - N/A   Clear
8:20 PM 33.8 °F - 28.4 °F 81% 30.40 in 10.0 mi Calm Calm - N/A   Clear
9:00 PM 32.0 °F - 28.4 °F 87% 30.42 in 10.0 mi Calm Calm - N/A   Clear
9:20 PM 32.0 °F - 28.4 °F 87% 30.43 in 10.0 mi Calm Calm - N/A   Clear
10:00 PM 32.0 °F - 28.4 °F 87% 30.46 in 10.0 mi Calm Calm - N/A   Clear
10:20 PM 32.0 °F - 28.4 °F 87% 30.46 in 10.0 mi Calm Calm - N/A   Clear
10:40 PM 32.0 °F - 28.4 °F 87% 30.47 in 10.0 mi Calm Calm - N/A   Clear
11:00 PM 30.2 °F - 28.4 °F 93% 30.47 in 10.0 mi Calm Calm - N/A   Clear
11:20 PM 30.2 °F - 28.4 °F 93% 30.47 in 10.0 mi Calm Calm - N/A   Clear
11:40 PM 30.2 °F - 28.4 °F 93% 30.47 in 10.0 mi Calm Calm - N/A   Clear